EHI
0 0 0 0 0 0 0 0 0 1 2 3 4 3 2 2 6 14 20 23 24 23 20 20 22 24 28 34 37 35 32 29 23 17 14 12 9 7 7 9 12 12 7 4
0 0 0 0 0 0 0 0 0 0 1 2 3 2 2 2 5 10 17 23 26 27 29 32 30 28 31 36 38 37 34 31 26 22 17 14 10 7 7 9 13 15 11 8
0 0 0 0 0 0 0 0 0 0 0 1 1 1 2 3 4 6 11 17 24 31 39 44 42 37 35 37 38 38 38 34 30 26 20 15 12 9 8 10 16 18 15 12
0 0 0 0 0 0 0 0 0 0 0 0 0 0 2 4 5 6 8 13 20 30 41 48 49 45 40 37 38 42 44 40 34 30 25 20 17 12 10 12 16 17 16 14
0 0 0 0 0 0 0 0 0 0 0 0 0 0 1 4 7 8 10 13 19 28 38 48 52 48 42 38 40 47 50 46 40 35 32 29 24 18 14 14 14 15 15 14
0 0 0 0 0 0 0 0 0 0 0 0 0 0 0 3 8 11 12 15 20 27 36 47 51 48 42 40 42 47 50 48 43 39 36 33 28 23 18 15 14 13 14 13
0 0 0 0 0 0 0 0 0 0 0 0 0 0 0 3 8 12 12 14 20 28 36 46 51 49 45 42 42 45 48 47 43 41 38 35 31 25 20 16 14 14 14 13
0 0 0 0 0 0 0 0 0 0 0 0 1 1 1 2 6 10 11 13 21 31 37 44 49 49 45 42 41 43 47 47 43 41 41 40 35 28 22 18 15 15 15 14
0 0 0 0 0 0 0 0 0 0 0 0 2 3 1 1 4 7 10 14 23 32 35 37 41 43 41 38 37 40 46 48 45 44 44 42 38 31 25 21 19 17 17 16
0 0 0 0 0 0 0 0 0 0 0 0 1 2 1 1 3 5 9 15 22 29 32 34 36 37 36 33 33 38 44 48 48 47 45 42 39 33 27 25 24 22 21 20
0 0 0 0 0 0 0 0 0 0 0 0 0 1 1 1 3 6 10 15 22 28 32 36 38 37 34 31 31 36 44 49 51 50 45 41 38 34 30 28 28 28 25 22
0 0 0 0 0 0 0 0 0 0 0 0 0 1 1 1 4 8 12 17 23 28 32 35 37 37 34 31 32 36 43 49 50 49 46 42 38 35 32 30 31 31 27 23
0 0 0 0 0 0 0 0 0 0 0 0 0 1 1 2 5 11 16 20 25 28 30 32 33 34 34 33 33 36 38 41 43 45 44 42 38 35 33 31 30 31 28 25
0 0 0 0 0 0 0 0 0 0 0 0 1 3 4 6 9 13 18 22 26 28 31 32 33 34 35 36 36 34 33 33 35 39 40 40 37 34 31 30 30 30 28 26
0 0 0 0 0 0 0 0 0 0 0 1 3 5 7 9 11 15 19 23 26 28 31 34 35 36 38 39 37 33 31 30 32 34 35 35 34 32 31 31 31 30 28 25
0 0 0 0 0 0 0 0 0 0 1 2 3 5 7 10 12 15 19 23 25 26 29 33 35 36 38 38 35 31 30 31 33 34 33 32 31 31 31 31 30 29 25 23
0 0 0 0 0 0 0 0 0 1 2 2 3 5 8 12 14 16 19 23 24 22 25 31 33 33 33 33 31 29 29 31 34 34 32 30 29 28 27 26 26 25 23 21
0 0 0 0 0 0 0 0 1 2 3 3 4 6 10 14 16 17 18 20 22 21 23 28 30 30 30 29 27 26 26 29 31 30 29 27 26 24 23 23 24 24 22 21
0 0 0 0 0 0 0 0 1 2 3 4 6 7 10 13 15 16 17 18 19 21 25 28 28 29 29 28 26 24 23 26 27 27 25 23 22 21 22 23 25 25 24 22
0 0 0 0 0 0 0 0 1 2 3 5 8 9 12 14 15 16 17 18 20 24 28 30 29 29 31 31 28 24 23 24 26 25 24 22 21 21 22 23 25 25 25 24
0 0 0 0 0 0 0 0 1 4 6 8 9 11 15 18 18 17 16 18 22 26 30 31 31 31 33 33 30 26 24 23 24 24 23 22 22 22 22 23 25 25 24 24
0 1 1 0 1 2 2 2 2 6 9 10 9 10 14 18 17 15 16 19 23 26 29 31 32 32 34 34 30 25 23 23 21 21 22 23 23 22 21 22 24 24 22 20
1 2 2 2 3 4 5 4 4 7 10 10 8 9 12 14 13 14 17 21 24 25 27 29 30 31 32 31 27 23 21 21 20 20 22 23 23 22 21 20 21 20 19 16
1 2 4 5 5 6 6 6 7 8 10 10 9 8 10 10 11 15 20 24 26 26 26 27 29 29 29 29 26 22 20 19 19 19 20 21 20 19 19 18 17 17 15 14
1 3 5 6 5 5 6 7 9 10 12 12 9 8 8 10 12 16 21 25 27 26 25 27 29 28 27 27 26 23 20 18 17 17 17 16 15 14 15 15 14 13 11 11
1 3 6 6 4 4 6 8 9 11 11 11 9 8 8 10 12 15 20 25 27 26 24 26 28 28 26 25 24 22 20 18 16 15 15 13 11 11 13 12 11 9 7 7
Wind_Speed
11 10 6 4 5 8 6 4 4 2 2 3 4 7 7 8 8 9 8 8 8 7 7 8 8 8 9 8 7 6 5 5 3 2 2 1 1 1 1 1 2 2 2 1
10 9 8 8 7 8 6 6 3 2 2 2 3 4 6 6 6 7 8 8 9 9 8 8 8 8 9 8 7 6 5 5 4 3 2 2 1 1 1 1 1 1 1 1
10 7 8 9 8 8 7 4 4 4 4 4 3 3 6 7 6 7 8 8 8 9 10 9 8 8 8 8 7 6 5 5 4 3 2 2 1 1 1 1 1 1 1 1
11 10 9 9 7 8 7 5 6 7 6 5 6 3 5 7 6 6 6 6 7 8 9 9 8 7 8 8 7 6 6 5 4 3 3 3 2 2 2 1 1 1 2 2
10 9 9 10 8 8 7 7 8 10 10 9 7 3 5 8 8 7 5 5 5 7 8 9 8 7 7 7 7 7 6 5 4 3 2 2 2 1 1 1 1 2 2 3
12 10 9 9 9 8 7 9 10 10 8 9 7 5 4 5 5 7 7 5 5 6 7 8 8 7 6 7 7 7 7 5 4 4 3 2 2 2 2 1 1 2 2 2
13 12 10 9 10 9 9 9 6 6 6 7 8 5 2 5 5 5 6 6 5 6 7 7 7 7 6 7 7 7 7 6 5 4 3 3 2 2 2 2 2 2 1 1
11 9 9 9 10 9 10 11 8 8 6 6 7 3 4 5 5 6 6 7 6 5 6 6 7 7 6 6 6 6 7 6 6 5 4 3 3 2 2 2 2 2 2 2
10 9 8 9 10 11 10 9 10 10 11 8 3 2 3 3 4 6 6 6 6 6 5 5 6 6 6 6 6 5 6 6 6 5 4 4 3 2 2 2 2 2 2 2
11 11 10 8 10 11 11 9 6 8 7 8 3 3 3 4 3 5 5 6 5 6 5 5 4 5 5 5 5 4 6 6 5 5 4 4 3 3 2 2 2 1 1 2
11 12 11 9 9 9 9 9 8 8 8 9 5 0 3 3 3 5 6 6 5 5 5 4 4 5 4 4 4 3 4 5 5 5 4 3 3 3 3 3 2 2 1 1
7 10 11 11 7 8 10 10 9 7 7 8 7 1 3 3 3 4 6 7 6 5 5 5 4 4 4 3 3 3 2 4 4 4 4 3 3 2 3 3 2 1 1 1
6 8 10 10 8 9 9 8 9 9 8 7 7 3 3 3 4 4 7 7 6 5 4 4 5 4 3 3 2 2 2 3 4 4 4 3 3 3 2 2 1 1 1 2
6 9 10 10 7 7 9 9 9 10 8 7 5 2 3 2 3 4 6 6 6 5 4 4 4 3 3 2 2 1 1 1 2 3 3 3 2 2 2 2 1 2 2 2
8 11 11 12 12 11 10 10 9 10 10 8 5 4 2 3 4 4 4 6 5 4 3 3 3 3 2 2 1 1 1 1 1 1 2 2 1 1 2 2 2 2 2 3
7 9 10 12 12 12 11 11 10 11 9 7 6 3 1 4 4 3 3 4 4 3 3 3 3 3 2 1 1 1 1 1 1 0 1 1 1 1 1 1 1 1 2 2
7 8 10 11 11 12 14 10 9 7 5 5 4 2 1 4 3 4 3 3 4 3 2 2 2 2 2 1 1 1 1 1 1 1 0 0 1 1 1 2 1 2 2 2
8 7 8 10 11 14 7 6 7 6 5 4 2 1 2 4 6 6 3 3 3 3 2 2 2 1 1 2 2 1 0 1 1 0 0 0 1 1 1 2 2 2 2 2
9 6 8 8 10 10 8 5 5 7 4 2 2 1 1 2 3 4 4 4 3 3 3 2 1 2 2 2 2 1 1 1 1 0 1 1 1 1 2 2 2 2 1 1
10 7 9 10 10 10 4 4 6 8 4 3 4 3 3 2 1 2 5 5 3 3 3 3 3 3 3 3 2 1 2 2 1 1 1 1 1 2 2 1 1 1 1 2
9 9 10 12 12 6 3 5 6 6 2 5 5 5 5 5 4 4 5 4 3 3 4 3 3 3 3 3 3 2 2 2 2 1 1 1 1 2 1 1 1 1 1 2
8 8 8 10 11 5 3 3 4 4 5 6 6 6 6 5 5 4 5 5 5 4 4 3 3 3 3 3 3 2 2 2 2 1 1 1 1 1 1 1 1 1 1 1
6 5 5 4 2 3 4 4 4 4 4 4 4 5 4 3 3 4 4 4 3 3 3 2 2 2 2 2 2 2 3 3 2 2 1 1 1 1 1 1 1 1 1 2
4 3 5 3 1 1 2 3 3 4 4 4 3 3 4 4 4 3 3 3 2 2 1 1 1 2 2 2 2 2 2 2 2 1 1 1 0 0 0 0 1 1 1 1
5 5 5 4 3 2 2 3 3 3 3 4 4 3 3 3 3 3 2 2 1 1 2 1 1 1 1 2 2 2 2 2 1 1 0 1 1 1 1 0 1 1 1 1
7 5 5 4 2 3 3 3 2 2 2 3 3 4 4 4 3 2 2 1 1 1 1 1 1 1 1 1 1 1 1 1 1 1 1 1 1 1 0 0 1 3 1 2
Wind_Direction
234 240 250 248 236 253 258 265 268 272 169 164 143 140 153 157 156 152 154 154 155 159 153 148 146 143 143 147 150 153 153 148 158 156 170 185 181 199 197 183 157 169 210 221
246 244 257 260 249 264 263 262 278 295 263 266 164 164 158 162 168 165 161 161 160 164 156 152 154 152 153 151 152 152 163 162 174 169 182 193 185 208 194 194 132 177 204 226
249 255 258 264 267 274 270 275 266 265 265 254 198 199 182 173 178 170 163 162 163 162 160 160 163 165 162 163 168 167 162 163 179 172 184 189 171 222 217 196 174 195 212 224
250 254 264 268 270 277 279 292 274 266 264 259 238 228 209 172 179 176 167 161 163 161 158 160 167 173 172 172 172 161 159 160 170 180 188 195 192 206 212 202 196 215 215 227
252 253 257 265 272 277 281 288 276 269 270 266 256 231 213 181 182 171 160 155 155 155 160 164 172 173 173 169 167 160 153 161 166 176 189 205 213 204 206 196 207 229 233 236
260 257 255 263 268 265 278 278 274 266 270 269 267 254 210 173 164 161 156 155 157 154 154 157 162 160 165 165 166 160 154 165 171 181 183 198 228 231 227 226 228 234 229 232
247 244 245 252 261 251 262 269 265 257 248 258 263 259 137 118 129 137 137 138 148 146 147 149 152 155 164 168 166 164 161 170 174 180 188 197 225 234 234 239 239 254 255 248
251 240 232 238 251 257 255 262 269 277 278 267 257 217 121 111 111 115 121 134 135 129 133 141 151 156 163 166 164 169 167 170 174 180 188 199 209 230 240 245 250 253 257 248
269 262 240 232 238 251 256 264 276 277 276 270 258 117 106 106 118 116 117 117 122 125 125 133 146 155 161 168 166 172 162 168 176 182 185 189 201 221 239 242 247 256 268 261
269 276 255 238 237 233 250 269 284 281 283 279 235 197 180 192 164 126 115 111 108 115 118 122 136 151 157 165 157 160 159 168 173 183 192 196 200 208 230 242 248 264 272 286
265 266 264 246 237 242 239 248 259 273 283 287 285 240 127 165 165 134 124 116 111 110 112 114 121 136 139 142 145 147 162 167 174 182 185 192 196 204 217 234 241 253 269 265
270 268 267 259 248 253 252 249 252 261 272 282 288 203 115 109 94 106 115 106 99 93 99 110 115 119 125 131 138 151 163 173 175 177 180 190 199 204 217 227 233 241 262 262
315 279 268 253 236 238 258 258 256 260 259 265 270 226 150 115 100 102 109 103 98 96 96 110 118 110 105 111 121 143 181 186 183 183 190 194 207 210 226 236 228 226 241 259
281 268 270 271 273 263 257 263 268 263 261 264 260 208 183 139 111 100 105 116 115 107 99 105 113 106 97 93 106 138 187 181 185 180 195 202 215 220 230 248 231 227 230 238
268 267 270 274 277 282 273 269 262 261 265 271 271 246 188 132 106 105 106 109 110 108 106 102 104 103 102 98 90 105 125 116 118 192 202 201 215 223 237 240 235 232 238 244
269 275 279 273 269 271 268 262 256 257 263 264 268 276 81 109 102 104 101 110 105 90 78 80 95 106 108 100 79 57 50 77 107 145 233 199 202 216 232 237 225 239 243 261
258 273 279 270 261 257 255 258 258 261 276 278 269 280 88 98 84 80 85 89 94 88 78 71 85 94 128 126 95 66 45 103 115 123 236 198 205 213 235 247 233 246 244 249
252 266 268 269 272 263 260 273 276 264 273 274 273 343 42 77 88 89 89 78 80 68 75 76 78 78 64 100 82 45 107 134 130 141 276 306 275 252 251 246 238 241 241 247
252 249 262 265 263 256 261 277 291 283 274 289 287 330 42 90 107 94 72 65 55 64 63 62 66 80 71 64 72 39 11 88 94 15 332 323 276 263 271 254 245 243 239 251
237 233 248 259 261 259 262 291 293 275 250 13 21 19 12 2 296 51 59 64 51 57 65 53 44 59 61 56 70 60 31 46 37 3 341 339 325 295 274 265 257 246 233 230
239 233 239 255 258 253 297 322 305 276 10 33 35 24 19 31 32 47 48 50 58 62 68 63 45 45 54 45 49 53 36 21 10 358 7 357 346 304 284 279 268 234 227 226
261 256 244 250 256 249 336 314 335 43 45 36 31 29 31 41 50 46 52 47 39 59 66 58 44 38 43 37 36 28 23 17 21 29 21 350 335 306 331 348 303 247 225 233
248 272 277 275 283 53 48 50 64 65 50 40 33 23 26 30 31 40 61 66 55 33 58 63 52 43 40 41 37 23 14 15 21 21 17 5 3 349 3 336 294 271 235 237
259 306 296 296 284 8 48 66 52 44 20 15 18 5 3 14 13 29 42 43 53 51 26 38 40 29 27 36 45 50 28 25 29 26 7 337 331 260 336 291 267 268 257 252
293 273 270 267 280 311 333 350 357 22 7 354 353 348 352 352 350 7 9 23 33 35 3 18 28 9 13 38 40 34 28 23 13 18 336 296 305 320 52 41 341 316 352 358
279 278 264 270 297 291 289 317 342 335 327 333 333 329 328 324 321 337 343 348 11 19 3 8 16 4 14 28 38 30 38 53 14 334 318 282 272 283 216 203 27 29 34 77